Flag for China Weather past 2 weeks in Foochow, Fujian, China

Now
77 °F

Passing clouds.


Feels Like: 79 °F
Forecast: 69 / 88 °F
Wind: 10 mph from Northeast

Location: Fuzhou Airport

Current Time: Oct 1, 2014 at 9:06:35 PM

Latest Report: Oct 1, 2014 at 8:00 PM


Visibility: N/A

Pressure: 29.95 "Hg

Humidity: 74%

Dew point: 68 °F

Location of FoochowLocation

Historic Weather in Foochow — Graph

°F

Foochow temperature yesterday

Maximum temperature yesterday: 88 °F (at 12:00 PM)
Minimum temperature yesterday: 79 °F (at 12:00 AM)
Average temperature yesterday: 82 °F

Past Weeks' High & Low Weather Summary

 TemperatureHumidityPressure
High91 °F (Sep 17, 11:00 AM)94% (Sep 21, 9:00 PM)29.98 "Hg (Sep 21, 9:00 PM)
Low72 °F (Sep 21, 2:00 AM)52% (Sep 23, 11:00 AM)29.59 "Hg (Sep 21, 1:00 PM)
Average81 °F75%29.84 "Hg
* Reported Sep 16 7:00 PM — Oct 1 7:00 PM, Foochow, Weather by CustomWeather, © 2014

Note: Actual official high and low records may vary slightly from our data, if they occured in-between our weather recording intervals... More about our weather records

Advertising

Foochow weather history for previous 24 hours

 ConditionsComfort  
Time TempWeatherWind HumidityBarometerVisibility
7:00 PM
Oct 1
77 °FPassing clouds.10 mph74%29.92 "HgN/A
6:00 PM77 °FPassing clouds.8 mph74%29.92 "HgN/A
5:00 PM77 °FPartly sunny.10 mph69%29.89 "HgN/A
4:00 PM77 °FPartly sunny.10 mph69%29.89 "HgN/A
3:00 PM79 °FPartly sunny.13 mph65%29.89 "HgN/A
2:00 PM79 °FPartly sunny.15 mph70%29.89 "HgN/A
1:00 PM79 °FPartly sunny.15 mph70%29.92 "HgN/A
12:00 PM81 °FPartly sunny.15 mph66%29.95 "HgN/A
11:00 AM81 °FPartly sunny.17 mph66%29.95 "HgN/A
10:00 AM81 °FPartly sunny.17 mph66%29.98 "HgN/A
9:00 AM81 °FPartly sunny.17 mph66%29.98 "HgN/A
8:00 AM79 °FOvercast.20 mph70%29.98 "HgN/A
7:00 AM79 °FOvercast.17 mph70%29.98 "HgN/A
6:00 AM77 °FMore clouds than sun.17 mph74%29.95 "HgN/A
5:00 AM77 °FPartly cloudy.15 mph74%29.95 "HgN/A
4:00 AM77 °FPartly cloudy.17 mph74%29.95 "HgN/A
3:00 AM77 °FPassing clouds.20 mph79%29.95 "HgN/A
2:00 AM79 °FPassing clouds.20 mph74%29.95 "HgN/A
1:00 AM79 °FPartly cloudy.22 mph74%29.95 "HgN/A
12:00 AM79 °FMostly cloudy.24 mph74%29.95 "HgN/A
11:00 PM
Sep 30
81 °FMostly cloudy.24 mph74%29.98 "HgN/A
10:00 PM81 °FMostly cloudy.22 mph74%29.98 "HgN/A
9:00 PM81 °FOvercast.22 mph74%29.98 "HgN/A
Weather by CustomWeather, © 2014

See weather overviewHow to use our weather pages